Port Edwards, WI

5:58 PM CDT on August 31, 2016 (GMT -0500)
Alexander Field South Wood County

Weather History for KISW - April, 2013

Change the Weather History Date:

Thursday, April 4, 2013

  Actual Average Record
Temperature  
Mean Temperature 39 °F -  
Max Temperature 50 °F 48 °F 75 °F (1997)
Min Temperature 28 °F 27 °F 10 °F (1982)
Degree Days  
Heating Degree Days 26    
Moisture  
Dew Point 23 °F    
Average Humidity 52    
Maximum Humidity 61    
Minimum Humidity 42    
Precipitation  
Precipitation 0.00 in - - ()
Sea Level Pressure  
Sea Level Pressure 30.08 in    
Wind  
Wind Speed 9 mph (West)    
Max Wind Speed 15 mph    
Max Gust Speed 23 mph    
Visibility 10 miles    
Events      
Averages and records for this station are not official NWS values.
T = Trace of Precipitation, MM = Missing Value Source: NWS Daily Summary

Daily Weather History Graph

Daily Weather History Graph

Search for Another Location

Airport or City:

Trip Planner

Search our weather history database for the weather conditions in past years. The results will help you decide how hot, cold, wet, or windy it might be!

Date:

Astronomy

Apr. 04, 2013 Rise Set
Actual Time 6:34 AM CDT 7:30 PM CDT
Civil Twilight 6:05 AM CDT 8:00 PM CDT
Nautical Twilight 5:29 AM CDT 8:35 PM CDT
Astronomical Twilight 4:53 AM CDT 9:12 PM CDT
Moon 3:14 AM CDT (4/4) 1:36 PM CDT (4/4)
Length of Visible Light 13h 55m
Length of Day
12h 56m
Waning Crescent, 33% of the Moon is Illuminated
Apr 4
Waning Crescent
Apr 10
New
Apr 18
First Quarter
Apr 25
Full
May 2
Last Quarter

Hourly Weather History & Observations

Time (CDT) Temp. Windchill Dew Point Humidity Pressure Visibility Wind Dir Wind Speed Gust Speed Precip Events Conditions
12:54 AM 28.9 °F 23.9 °F 17.1 °F 61% 30.21 in 10.0 mi South 4.6 mph - N/A   Clear
1:54 AM 30.9 °F 23.5 °F 17.1 °F 57% 30.19 in 10.0 mi South 8.1 mph - N/A   Clear
2:54 AM 33.1 °F 23.9 °F 18.0 °F 54% 30.16 in 10.0 mi SSW 12.7 mph - N/A   Clear
3:54 AM 33.1 °F 24.9 °F 18.0 °F 54% 30.14 in 10.0 mi SSW 10.4 mph - N/A   Clear
4:54 AM 32.0 °F 24.2 °F 18.0 °F 56% 30.13 in 10.0 mi SSW 9.2 mph - N/A   Clear
5:54 AM 33.1 °F 25.5 °F 18.0 °F 54% 30.11 in 10.0 mi SSW 9.2 mph - N/A   Clear
6:54 AM 33.1 °F 24.9 °F 19.0 °F 56% 30.09 in 10.0 mi SSW 10.4 mph 18.4 mph N/A   Clear
7:54 AM 36.0 °F 27.5 °F 19.9 °F 52% 30.09 in 10.0 mi SW 12.7 mph - N/A   Clear
8:54 AM 39.9 °F 32.1 °F 21.0 °F 47% 30.07 in 10.0 mi SW 13.8 mph 19.6 mph N/A   Clear
9:54 AM 43.0 °F 36.0 °F 21.9 °F 43% 30.05 in 10.0 mi SW 13.8 mph 23.0 mph N/A   Mostly Cloudy
10:54 AM 46.0 °F 41.9 °F 24.1 °F 42% 30.04 in 10.0 mi WSW 8.1 mph 20.7 mph N/A   Mostly Cloudy
11:54 AM 43.0 °F 38.2 °F 28.9 °F 58% 30.04 in 10.0 mi WNW 8.1 mph - 0.00 in   Overcast
12:54 PM 45.0 °F 38.2 °F 30.0 °F 56% 30.04 in 10.0 mi West 15.0 mph 21.9 mph 0.00 in   Mostly Cloudy
1:54 PM 48.0 °F - 30.9 °F 52% 30.02 in 10.0 mi WNW 10.4 mph - N/A   Clear
2:54 PM 48.9 °F - 30.9 °F 50% 30.01 in 10.0 mi NW 12.7 mph - N/A   Clear
3:54 PM 50.0 °F - 30.9 °F 48% 30.00 in 10.0 mi NW 11.5 mph - N/A   Clear
4:54 PM 50.0 °F - 28.9 °F 44% 30.01 in 10.0 mi NNW 15.0 mph - N/A   Clear
5:54 PM 48.0 °F - 28.0 °F 46% 30.02 in 10.0 mi NW 9.2 mph - N/A   Clear
6:54 PM 46.0 °F 41.4 °F 25.0 °F 44% 30.03 in 10.0 mi NW 9.2 mph 21.9 mph N/A   Clear
7:54 PM 41.0 °F 36.4 °F 24.1 °F 51% 30.04 in 10.0 mi WNW 6.9 mph - N/A   Clear
8:54 PM 37.9 °F 33.5 °F 23.0 °F 55% 30.06 in 10.0 mi WNW 5.8 mph - N/A   Clear
9:54 PM 37.0 °F 31.6 °F 23.0 °F 57% 30.09 in 10.0 mi NW 6.9 mph - N/A   Clear
10:54 PM 37.0 °F 33.3 °F 21.9 °F 54% 30.10 in 10.0 mi North 4.6 mph - N/A   Clear
11:54 PM 35.1 °F 28.6 °F 21.9 °F 59% 30.12 in 10.0 mi North 8.1 mph - N/A   Clear